Hourly Weather Rucheyki

Today, 23 July, Friday

Time Temperature Precipitation Wind Pressure Humidity
00:00 +12°C° 0 mm 2 mps 737 mmHg 75%
01:00 +12°C° 0 mm 2 mps 737 mmHg 77%
02:00 +12°C° 0 mm 2 mps 737 mmHg 79%
03:00 +11°C° 0 mm 3 mps 737 mmHg 78%
04:00 +12°C° 0 mm 3 mps 737 mmHg 77%
05:00 +12°C° 0 mm 3 mps 737 mmHg 76%
06:00 +14°C° 0 mm 3 mps 736 mmHg 71%
07:00 +17°C° 0 mm 4 mps 736 mmHg 65%
08:00 +20°C° 0 mm 4 mps 736 mmHg 59%
09:00 +20°C° 0 mm 5 mps 736 mmHg 56%
10:00 +21°C° 0 mm 5 mps 736 mmHg 52%
11:00 +22°C° 0 mm 6 mps 736 mmHg 49%
12:00 +22°C° 0 mm 5 mps 735 mmHg 50%
13:00 +22°C° 0 mm 5 mps 735 mmHg 51%
14:00 +22°C° 0 mm 4 mps 735 mmHg 53%
15:00 +21°C° 0 mm 4 mps 735 mmHg 54%
16:00 +21°C° 0 mm 3 mps 735 mmHg 56%
17:00 +21°C° 0 mm 3 mps 735 mmHg 57%
18:00 +19°C° 0 mm 2 mps 736 mmHg 63%
19:00 +17°C° 0 mm 2 mps 736 mmHg 68%
20:00 +16°C° 0 mm 2 mps 736 mmHg 74%
21:00 +15°C° 0 mm 2 mps 737 mmHg 77%
22:00 +14°C° 0 mm 2 mps 737 mmHg 80%
23:00 +13°C° 0 mm 2 mps 737 mmHg 84%

Tomorrow, 24 July, Saturday

Time Temperature Precipitation Wind Pressure Humidity
00:00 +13°C° 0 mm 2 mps 737 mmHg 83%
01:00 +13°C° 0 mm 2 mps 738 mmHg 83%
02:00 +13°C° 0 mm 2 mps 738 mmHg 82%
03:00 +13°C° 0 mm 2 mps 738 mmHg 82%
04:00 +12°C° 0 mm 2 mps 739 mmHg 82%
05:00 +12°C° 0 mm 1 mps 739 mmHg 83%
06:00 +14°C° 0 mm 2 mps 739 mmHg 73%
07:00 +16°C° 0 mm 2 mps 739 mmHg 63%
08:00 +18°C° 0 mm 2 mps 740 mmHg 54%
09:00 +19°C° 0 mm 2 mps 740 mmHg 49%
10:00 +20°C° 0 mm 3 mps 740 mmHg 44%
11:00 +21°C° 0 mm 3 mps 740 mmHg 39%
12:00 +21°C° 0 mm 3 mps 741 mmHg 39%
13:00 +21°C° 0 mm 2 mps 741 mmHg 39%
14:00 +21°C° 0 mm 2 mps 741 mmHg 39%
15:00 +21°C° 0 mm 2 mps 741 mmHg 41%
16:00 +22°C° 0 mm 1 mps 741 mmHg 43%
17:00 +22°C° 0 mm 1 mps 741 mmHg 45%
18:00 +20°C° 0 mm 1 mps 741 mmHg 49%
19:00 +19°C° 0 mm 1 mps 742 mmHg 54%
20:00 +16°C° 0 mm 1 mps 742 mmHg 59%
21:00 +16°C° 0 mm 1 mps 742 mmHg 59%
22:00 +16°C° 0 mm 1 mps 742 mmHg 59%
23:00 +16°C° 0 mm 1 mps 743 mmHg 58%

Day after tomorrow, 25 July, Sunday

Time Temperature Precipitation Wind Pressure Humidity
00:00 +15°C° 0 mm 1 mps 743 mmHg 59%
01:00 +15°C° 0 mm 1 mps 743 mmHg 60%
02:00 +15°C° 0 mm 2 mps 743 mmHg 61%
03:00 +15°C° 0 mm 1 mps 744 mmHg 62%
04:00 +15°C° 0 mm 1 mps 744 mmHg 63%
05:00 +15°C° 0 mm 1 mps 744 mmHg 65%
06:00 +16°C° 0 mm 1 mps 744 mmHg 61%
07:00 +18°C° 0 mm 1 mps 745 mmHg 58%
08:00 +19°C° 0 mm 1 mps 745 mmHg 54%
09:00 +19°C° 0 mm 0 mps 745 mmHg 49%
10:00 +21°C° 0 mm 0 mps 745 mmHg 44%
11:00 +23°C° 0 mm 0 mps 745 mmHg 39%
12:00 +23°C° 0 mm 0 mps 745 mmHg 38%
13:00 +23°C° 0 mm 0 mps 745 mmHg 37%
14:00 +24°C° 0 mm 0 mps 745 mmHg 36%
15:00 +25°C° 0 mm 1 mps 745 mmHg 40%
16:00 +25°C° 0 mm 1 mps 745 mmHg 44%
17:00 +24°C° 0 mm 1 mps 745 mmHg 48%
18:00 +23°C° 0 mm 1 mps 745 mmHg 51%
19:00 +21°C° 0 mm 1 mps 745 mmHg 54%
20:00 +20°C° 0 mm 1 mps 746 mmHg 57%
21:00 +20°C° 0 mm 1 mps 746 mmHg 58%
22:00 +19°C° 0 mm 1 mps 746 mmHg 59%
23:00 +19°C° 0 mm 1 mps 746 mmHg 61%

26 July, Monday

Time Temperature Precipitation Wind Pressure Humidity
00:00 +18°C° 0 mm 1 mps 746 mmHg 65%
01:00 +16°C° 0 mm 1 mps 746 mmHg 69%
02:00 +15°C° 0 mm 1 mps 746 mmHg 73%
03:00 +16°C° 0 mm 1 mps 747 mmHg 73%
04:00 +16°C° 0 mm 1 mps 747 mmHg 74%
05:00 +16°C° 0 mm 1 mps 747 mmHg 74%
06:00 +19°C° 0 mm 1 mps 747 mmHg 70%
07:00 +19°C° 0 mm 2 mps 747 mmHg 66%
08:00 +21°C° 0 mm 2 mps 747 mmHg 63%
09:00 +23°C° 0 mm 2 mps 747 mmHg 57%
10:00 +24°C° 0 mm 2 mps 747 mmHg 52%
11:00 +26°C° 0 mm 2 mps 747 mmHg 47%
12:00 +26°C° 0 mm 2 mps 747 mmHg 46%
13:00 +26°C° 0 mm 2 mps 747 mmHg 46%
14:00 +26°C° 0 mm 2 mps 747 mmHg 46%
15:00 +25°C° 0 mm 1 mps 747 mmHg 49%
16:00 +24°C° 0 mm 1 mps 747 mmHg 51%
17:00 +24°C° 0 mm 1 mps 747 mmHg 54%
18:00 +23°C° 0 mm 1 mps 747 mmHg 57%
19:00 +21°C° 0 mm 1 mps 747 mmHg 61%
20:00 +20°C° 0 mm 1 mps 747 mmHg 64%
21:00 +19°C° 0 mm 1 mps 747 mmHg 65%
22:00 +18°C° 0 mm 1 mps 747 mmHg 67%
23:00 +18°C° 0 mm 1 mps 747 mmHg 68%

27 July, Tuesday

Time Temperature Precipitation Wind Pressure Humidity
00:00 +16°C° 0 mm 1 mps 747 mmHg 70%
01:00 +16°C° 0 mm 1 mps 747 mmHg 71%
02:00 +15°C° 0 mm 1 mps 747 mmHg 72%
03:00 +15°C° 0 mm 1 mps 747 mmHg 72%
04:00 +16°C° 0 mm 1 mps 747 mmHg 72%
05:00 +16°C° 0 mm 1 mps 747 mmHg 73%
06:00 +19°C° 0 mm 1 mps 747 mmHg 65%
07:00 +21°C° 0 mm 1 mps 747 mmHg 58%
08:00 +24°C° 0 mm 2 mps 747 mmHg 51%
09:00 +25°C° 0 mm 2 mps 747 mmHg 46%
10:00 +26°C° 0 mm 2 mps 747 mmHg 41%
11:00 +28°C° 0 mm 2 mps 746 mmHg 37%
12:00 +28°C° 0 mm 2 mps 746 mmHg 35%
13:00 +29°C° 0 mm 3 mps 746 mmHg 34%
14:00 +29°C° 0 mm 3 mps 746 mmHg 32%
15:00 +29°C° 0 mm 2 mps 745 mmHg 36%
16:00 +28°C° 0 mm 2 mps 745 mmHg 39%
17:00 +28°C° 0 mm 2 mps 745 mmHg 42%
18:00 +26°C° 0 mm 2 mps 745 mmHg 48%
19:00 +24°C° 0 mm 2 mps 744 mmHg 54%
20:00 +21°C° 0 mm 2 mps 744 mmHg 60%
21:00 +20°C° 0 mm 2 mps 744 mmHg 65%
22:00 +19°C° 0 mm 2 mps 744 mmHg 69%
23:00 +18°C° 0 mm 2 mps 744 mmHg 73%

28 July, Wednesday

Time Temperature Precipitation Wind Pressure Humidity
00:00 +18°C° 0 mm 2 mps 744 mmHg 78%
01:00 +17°C° 0 mm 2 mps 743 mmHg 84%
02:00 +17°C° 0 mm 2 mps 743 mmHg 89%
03:00 +17°C° 0.1 mm 2 mps 743 mmHg 90%
04:00 +17°C° 0.1 mm 2 mps 743 mmHg 91%
05:00 +17°C° 0.1 mm 2 mps 743 mmHg 92%
06:00 +18°C° 0 mm 3 mps 743 mmHg 88%
07:00 +19°C° 0 mm 3 mps 742 mmHg 84%
08:00 +20°C° 0 mm 4 mps 742 mmHg 80%
09:00 +19°C° 0.5 mm 4 mps 742 mmHg 83%
10:00 +19°C° 0.5 mm 5 mps 742 mmHg 86%
11:00 +17°C° 0.5 mm 5 mps 741 mmHg 90%
12:00 +17°C° 0.5 mm 6 mps 741 mmHg 88%
13:00 +19°C° 0.5 mm 6 mps 741 mmHg 86%
14:00 +18°C° 0.5 mm 7 mps 740 mmHg 84%
15:00 +19°C° 1 mm 6 mps 740 mmHg 86%
16:00 +17°C° 1 mm 6 mps 739 mmHg 88%
17:00 +17°C° 1 mm 6 mps 738 mmHg 90%
18:00 +17°C° 0.7 mm 5 mps 738 mmHg 92%
19:00 +18°C° 0.7 mm 4 mps 738 mmHg 94%
20:00 +19°C° 0.7 mm 3 mps 738 mmHg 97%
21:00 +18°C° 0 mm 3 mps 738 mmHg 97%
22:00 +18°C° 0 mm 3 mps 738 mmHg 97%
23:00 +18°C° 0 mm 3 mps 738 mmHg 97%
Show more

We Need Your Consent

Meteoprog and our Service Providers may store and access personal data such as cookies, device identifiers or other similar technologies on your device and process such data to personalise content and ads, as well as provide social media features and to analyse the traffic.

  • Store and/or access information on your device

    Cookies, device identifiers or other information can be stored or accessed on your device for the purposes indicated above.

  • Personalised ads and content, ad and content measurement, audience insights, and products development

    Ads and content can be personalised based on a profile. More data can be added to better personalise ads and content. Ad and content performance can be measured. Insights about the audience who saw the ads and content can be derived. Such data can be used to develop or improve user’s experience, systems and software.

By clicking ‘I Agree’ you will allow the use of indicated cookies, device identifiers, web beacons or other similar technologies. Your settings can be changed in the browser on your device.

For certain purposes, legitimate interests may be relied on, rather than consent. You can read more about this in our Privacy and Cookie Policy.